Location: Unspecified
(64.9000°N, 0.0000°E)
Time: 18:51:48
(UTC+00:00)

A-11 Canister half - Pass Details

Date: 20 June 2019
Orbit: 1526 x 1683 km, 47.3° (Epoch: 22 August)

Event Time Altitude Azimuth Distance (km) Brightness Sun altitude
Rises 05:35:25 0° 210° (SSW) 4,710 11.1 18.4°
Reaches altitude 10° 05:39:32 10° 194° (SSW) 3,711 10.8 18.8°
Maximum altitude 05:45:38 20° 153° (SSE) 2,991 10.8 19.5°
Drops below altitude 10° 05:51:43 10° 111° (ESE) 3,698 12.1 20.1°
Sets 05:55:47 0° 96° (E) 4,687 12.9 20.5°
